FW9562 Weather Reports


time (UTC)temp
C
wind
direction
speed
KPH
gust
KPH
rain 1hr
cm
rain 24hr
cm
rain mn
cm
humidity
%
barometer
mb
20260503050157 4 72 3.2 4.8 0.00 0.00 0.00 99 1015.5
20260503045655 4 63 4.8 8.0 0.00 0.00 0.00 99 1015.6
20260503045152 4 74 4.8 4.8 0.00 0.00 0.00 99 1015.4
20260503044649 4 65 4.8 4.8 0.00 0.00 0.00 99 1015.4
20260503044146 4 85 4.8 4.8 0.00 0.00 0.00 99 1015.4
20260503043643 4 79 4.8 6.4 0.00 0.00 0.00 99 1015.5
20260503043140 4 78 6.4 6.4 0.00 0.00 0.00 99 1015.5
20260503042636 4 73 4.8 6.4 0.00 0.00 0.00 99 1015.4
20260503042132 4 66 6.4 6.4 0.00 0.00 0.00 99 1015.4
20260503041629 4 71 4.8 4.8 0.00 0.00 0.00 99 1015.2
20260503041127 4 70 4.8 6.4 0.00 0.00 0.00 99 1015.2
20260503040624 4 71 4.8 4.8 0.00 0.00 0.00 99 1015.1
20260503040121 4 66 4.8 6.4 0.00 0.08 0.08 99 1015.2
20260503035618 4 79 3.2 4.8 0.00 0.08 0.08 99 1015.3
20260503035116 5 68 4.8 6.4 0.00 0.08 0.08 99 1015.1
20260503034613 5 86 3.2 4.8 0.00 0.08 0.08 99 1015.3
20260503034110 5 79 4.8 6.4 0.00 0.08 0.08 99 1015.1
20260503033607 5 80 4.8 6.4 0.00 0.08 0.08 99 1015.1
20260503033105 5 86 3.2 4.8 0.00 0.08 0.08 99 1015.2
20260503032603 5 75 4.8 4.8 0.00 0.08 0.08 99 1015.1
20260503032101 5 77 4.8 4.8 0.00 0.08 0.08 99 1014.9
20260503031558 5 58 4.8 8.0 0.00 0.08 0.08 99 1015.1
20260503031055 5 73 4.8 6.4 0.00 0.08 0.08 99 1015.0
20260503030551 5 34 9.7 9.7 0.00 0.08 0.08 99 1014.9
20260503030048 5 70 4.8 4.8 0.00 0.08 0.08 99 1014.8
20260503025545 5 76 3.2 4.8 0.00 0.08 0.08 99 1014.5
20260503025043 5 77 4.8 4.8 0.00 0.08 0.08 99 1014.6
20260503024539 5 69 4.8 4.8 0.00 0.08 0.08 99 1014.6
20260503024036 5 71 3.2 4.8 0.00 0.08 0.08 99 1014.5
20260503023533 5 65 4.8 6.4 0.00 0.08 0.08 99 1014.4
20260503023031 5 80 4.8 4.8 0.00 0.08 0.08 99 1014.5
20260503022526 5 79 4.8 6.4 0.00 0.08 0.08 99 1014.5
20260503022021 5 73 4.8 6.4 0.00 0.08 0.08 99 1014.3
20260503021518 6 77 4.8 4.8 0.00 0.08 0.08 99 1014.4
20260503021015 6 67 3.2 4.8 0.00 0.08 0.08 99 1014.2
20260503020512 6 60 4.8 6.4 0.00 0.08 0.08 99 1014.3
20260503020009 6 71 4.8 4.8 0.00 0.08 0.08 99 1014.1
20260503015506 6 69 4.8 4.8 0.00 0.08 0.08 99 1014.3
20260503015003 6 69 4.8 4.8 0.00 0.08 0.08 99 1014.0
20260503014459 6 72 4.8 4.8 0.00 0.08 0.08 99 1014.0
20260503013957 6 84 4.8 6.4 0.00 0.08 0.08 98 1013.9
20260503013454 6 67 4.8 4.8 0.00 0.08 0.08 98 1013.7
20260503012951 7 71 4.8 4.8 0.00 0.08 0.08 98 1013.7
20260503012449 7 77 4.8 4.8 0.00 0.08 0.08 98 1013.7
20260503011944 7 86 4.8 4.8 0.00 0.08 0.08 97 1013.7
20260503011442 7 75 3.2 4.8 0.00 0.08 0.08 97 1013.8
20260503010939 7 78 3.2 4.8 0.00 0.08 0.08 96 1013.4
20260503010435 7 79 4.8 4.8 0.00 0.08 0.08 95 1013.6
20260503005933 7 74 4.8 4.8 0.00 0.08 0.08 95 1013.5
20260503005430 7 67 3.2 4.8 0.00 0.08 0.08 95 1013.4
20260503004926 7 70 3.2 4.8 0.00 0.08 0.08 94 1013.4
20260503004423 8 80 3.2 4.8 0.00 0.08 0.08 94 1013.0
20260503003921 8 82 4.8 4.8 0.00 0.08 0.08 93 1013.0
20260503003418 8 72 4.8 4.8 0.00 0.08 0.08 92 1013.1
20260503002915 8 71 4.8 4.8 0.00 0.08 0.08 90 1013.3
20260503002412 8 66 4.8 4.8 0.00 0.08 0.08 89 1013.0
20260503001908 9 77 4.8 4.8 0.00 0.08 0.08 87 1012.8
20260503001404 9 72 4.8 4.8 0.00 0.08 0.08 85 1012.9
20260503000903 10 72 3.2 4.8 0.00 0.08 0.08 83 1012.7
20260503000400 10 58 4.8 4.8 0.00 0.08 0.08 80 1012.7
20260502235856 10 80 3.2 3.2 0.00 0.08 0.08 80 1012.8
20260502235353 11 67 3.2 4.8 0.00 0.08 0.08 78 1012.6
20260502234850 11 67 3.2 4.8 0.00 0.08 0.08 76 1012.9
20260502234347 11 61 4.8 4.8 0.00 0.08 0.08 77 1012.3
20260502233844 11 65 3.2 3.2 0.00 0.08 0.08 76 1012.5
20260502233340 11 74 3.2 3.2 0.00 0.08 0.08 72 1012.3
20260502232837 12 78 3.2 3.2 0.00 0.08 0.08 73 1012.3
20260502232333 12 74 1.6 3.2 0.00 0.08 0.08 73 1012.3
20260502231830 12 85 3.2 3.2 0.00 0.08 0.08 72 1012.0
20260502231328 12 83 3.2 3.2 0.00 0.08 0.08 72 1012.2
20260502230826 12 76 1.6 3.2 0.00 0.08 0.08 69 1012.1
20260502230324 13 63 4.8 4.8 0.00 0.08 0.08 69 1012.1
20260502225820 13 65 3.2 4.8 0.00 0.08 0.08 68 1012.0
20260502225317 13 75 3.2 4.8 0.00 0.08 0.08 67 1012.2
20260502224814 13 53 4.8 6.4 0.00 0.08 0.08 67 1012.2
20260502224310 13 72 3.2 8.0 0.00 0.08 0.08 67 1012.0
20260502223808 13 33 6.4 8.0 0.00 0.08 0.08 63 1012.0
20260502223305 13 70 4.8 4.8 0.00 0.08 0.08 68 1012.1
20260502222803 13 32 4.8 8.0 0.00 0.08 0.08 63 1012.1
20260502222300 13 55 4.8 8.0 0.00 0.08 0.08 63 1012.0
20260502221755 13 16 8.0 11.3 0.00 0.08 0.08 61 1011.9
20260502221252 13 74 4.8 8.0 0.00 0.08 0.08 63 1011.7
20260502220749 13 49 4.8 9.7 0.00 0.08 0.08 59 1011.7
20260502220245 14 60 4.8 9.7 0.00 0.08 0.08 62 1011.8
20260502215742 13 61 4.8 8.0 0.00 0.08 0.08 64 1011.8
20260502215239 12 43 4.8 8.0 0.00 0.08 0.08 64 1012.0
20260502214736 12 37 6.4 8.0 0.00 0.08 0.08 64 1011.7
20260502214235 12 35 8.0 8.0 0.00 0.08 0.08 65 1011.5
20260502213730 12 34 8.0 9.7 0.00 0.08 0.08 64 1011.6
20260502213228 13 25 8.0 8.0 0.00 0.08 0.08 66 1011.8
20260502212726 13 43 6.4 8.0 0.00 0.08 0.08 64 1011.6
20260502212224 13 65 4.8 8.0 0.00 0.08 0.08 64 1011.6
20260502211720 13 73 3.2 9.7 0.00 0.08 0.08 65 1011.5
20260502211217 13 75 3.2 8.0 0.00 0.08 0.08 64 1011.7
20260502210714 13 64 3.2 9.7 0.00 0.08 0.08 64 1011.6
20260502210211 13 44 4.8 11.3 0.00 0.08 0.08 62 1011.6
20260502205708 13 42 6.4 16.1 0.00 0.08 0.08 64 1011.7
20260502205204 13 55 6.4 14.5 0.00 0.08 0.08 63 1011.8
20260502204702 13 50 1.6 11.3 0.00 0.08 0.08 63 1011.7
20260502204159 13 54 4.8 8.0 0.00 0.08 0.08 63 1011.7
20260502203656 14 64 1.6 6.4 0.00 0.08 0.08 64 1011.7
20260502203155 14 42 8.0 9.7 0.00 0.08 0.08 64 1011.6
20260502202648 14 64 0.0 12.9 0.00 0.08 0.08 63 1011.7
20260502202147 14 351 0.0 8.0 0.00 0.08 0.08 63 1011.8
20260502201643 14 63 3.2 16.1 0.00 0.08 0.08 64 1011.8
20260502201140 14 66 4.8 11.3 0.00 0.08 0.08 64 1011.6
20260502200636 14 38 8.0 8.0 0.00 0.08 0.08 65 1011.7
20260502200133 14 154 3.2 11.3 0.00 0.08 0.08 62 1011.8
20260502195631 15 44 9.7 14.5 0.00 0.08 0.08 62 1011.8
20260502195127 15 35 6.4 6.4 0.00 0.08 0.08 61 1011.7
20260502194624 15 33 6.4 8.0 0.00 0.08 0.08 63 1011.8
20260502194120 15 292 3.2 6.4 0.00 0.08 0.08 61 1012.0
20260502193617 15 30 6.4 8.0 0.00 0.08 0.08 61 1011.7
20260502193114 16 290 3.2 4.8 0.00 0.08 0.08 57 1011.9
20260502192609 16 26 6.4 9.7 0.00 0.08 0.08 58 1012.2
20260502192107 15 52 4.8 6.4 0.00 0.08 0.08 66 1012.0
20260502191604 15 118 4.8 8.0 0.00 0.08 0.08 62 1012.1
20260502191102 15 41 4.8 6.4 0.00 0.08 0.08 65 1012.1
20260502190559 14 26 8.0 8.0 0.00 0.08 0.08 65 1012.4
20260502190056 15 32 6.4 17.7 0.00 0.08 0.08 62 1011.9
20260502185550 14 49 6.4 9.7 0.00 0.08 0.08 64 1012.2
20260502185048 15 39 8.0 12.9 0.00 0.08 0.08 62 1012.1
20260502184544 15 19 8.0 16.1 0.00 0.08 0.08 60 1012.2
20260502184040 15 65 3.2 6.4 0.00 0.08 0.08 67 1012.0
20260502183536 15 62 4.8 8.0 0.00 0.08 0.08 67 1012.2
20260502183033 15 33 6.4 9.7 0.00 0.08 0.08 63 1012.2
20260502182527 15 72 4.8 9.7 0.00 0.08 0.08 66 1012.3
20260502182024 15 26 8.0 16.1 0.00 0.08 0.08 64 1012.3
20260502181522 15 49 6.4 14.5 0.00 0.08 0.08 64 1012.3
20260502181021 14 62 8.0 16.1 0.00 0.08 0.08 67 1012.5
20260502180517 14 22 8.0 14.5 0.00 0.08 0.08 64 1012.6
20260502170430 13 53 6.4 11.3 0.00 0.08 0.08 70 1012.8
20260502163913 13 46 6.4 11.3 0.00 0.08 0.08 69 1013.2
20260502163409 13 37 6.4 11.3 0.00 0.08 0.08 70 1013.0
20260502162908 14 81 6.4 8.0 0.00 0.08 0.08 72 1013.1
20260502162404 14 54 6.4 16.1 0.00 0.08 0.08 75 1013.2
20260502161901 13 34 6.4 11.3 0.00 0.08 0.08 73 1013.4
20260502161357 13 57 8.0 11.3 0.00 0.08 0.08 75 1013.5
20260502160855 12 61 6.4 11.3 0.00 0.08 0.08 77 1013.6
20260502160353 12 11 6.4 16.1 0.05 0.08 0.08 74 1013.8
20260502152334 12 60 4.8 8.0 0.00 0.05 0.05 81 1013.9
20260502151832 12 28 6.4 6.4 0.00 0.05 0.05 82 1013.9
20260502151328 12 43 8.0 8.0 0.00 0.05 0.05 82 1013.6
20260502150826 12 51 6.4 11.3 0.00 0.05 0.05 85 1013.6
20260502150322 11 75 4.8 6.4 0.00 0.05 0.05 85 1013.7
20260502130710 10 48 6.4 9.7 0.00 0.05 0.05 85 1013.1
20260502130208 10 43 9.7 11.3 0.00 0.05 0.05 83 1012.8
20260502123654 10 64 4.8 8.0 0.00 0.05 0.05 87 1013.1
20260502123150 10 43 8.0 11.3 0.00 0.05 0.05 87 1013.2
20260502122647 10 36 8.0 11.3 0.00 0.05 0.05 88 1013.2
20260502122143 10 40 8.0 9.7 0.00 0.05 0.05 89 1013.0
20260502121642 10 42 8.0 11.3 0.00 0.05 0.05 90 1013.0
20260502121139 10 26 11.3 14.5 0.00 0.05 0.05 88 1013.0
20260502120635 10 30 8.0 12.9 0.00 0.05 0.05 90 1012.9
20260502120132 10 38 8.0 9.7 0.00 0.05 0.05 91 1012.7
20260502115630 10 37 8.0 11.3 0.00 0.05 0.05 91 1012.7
20260502115126 10 54 8.0 8.0 0.00 0.05 0.05 91 1012.8
20260502114622 10 46 8.0 9.7 0.05 0.05 0.05 91 1013.0
20260502114120 10 45 6.4 6.4 0.05 0.05 0.05 92 1012.8
20260502113617 10 42 6.4 8.0 0.00 0.03 0.03 91 1012.9
20260502113115 10 78 3.2 8.0 0.00 0.03 0.03 92 1012.8
20260502112613 10 52 6.4 8.0 0.00 0.03 0.03 91 1013.0
20260502112110 10 78 4.8 8.0 0.00 0.03 0.03 91 1012.6
20260502111607 10 52 4.8 6.4 0.05 0.03 0.03 92 1012.8
20260502111104 10 60 4.8 9.7 0.05 0.03 0.03 91 1012.7
20260502110602 10 68 4.8 4.8 0.00 0.03 0.03 92 1012.6
20260502110059 10 45 6.4 6.4 0.00 0.03 0.03 92 1012.7
20260502105556 10 68 4.8 8.0 0.00 0.03 0.03 91 1012.9
20260502105054 10 78 4.8 9.7 0.00 0.03 0.03 90 1012.8
20260502104551 10 47 6.4 9.7 0.00 0.03 0.03 89 1012.9
20260502104048 10 62 4.8 11.3 0.05 0.03 0.03 89 1012.8
20260502103546 11 30 8.0 9.7 0.00 0.00 0.00 89 1012.9
20260502103044 11 26 9.7 14.5 0.00 0.00 0.00 89 1013.0
20260502102540 11 28 6.4 9.7 0.00 0.00 0.00 91 1012.9
20260502102037 11 27 8.0 9.7 0.05 0.00 0.00 92 1013.0
20260502101535 11 45 8.0 9.7 0.00 0.00 0.00 92 1012.9
20260502101033 11 45 6.4 8.0 0.00 0.00 0.00 93 1013.0
20260502100531 11 83 4.8 8.0 0.00 0.00 0.00 93 1013.1
20260502091506 10 35 8.0 11.3 0.00 0.00 0.00 96 1012.8
20260502091003 10 38 8.0 12.9 0.00 0.00 0.00 97 1012.7
20260502090500 10 30 6.4 9.7 0.00 0.00 0.00 97 1013.0
20260502071355 9 59 4.8 4.8 0.00 0.00 0.00 99 1011.7
20260502070853 9 66 3.2 4.8 0.00 0.00 0.00 99 1011.6
20260502070350 9 66 3.2 4.8 0.00 0.00 0.00 99 1011.5
20260502065849 9 67 3.2 4.8 0.00 0.00 0.00 99 1011.7
20260502065347 9 69 4.8 4.8 0.00 0.00 0.00 99 1011.7
20260502064844 9 74 4.8 4.8 0.00 0.00 0.00 99 1012.0
20260502064342 9 77 4.8 4.8 0.00 0.00 0.00 99 1011.9
20260502063839 9 71 3.2 4.8 0.00 0.00 0.00 99 1012.0
20260502063337 9 73 3.2 4.8 0.00 0.00 0.00 99 1012.0
20260502062834 9 61 4.8 4.8 0.00 0.00 0.00 99 1012.0
20260502062331 9 64 4.8 4.8 0.00 0.00 0.00 99 1012.3
20260502061830 9 71 3.2 3.2 0.00 0.00 0.00 99 1012.4
20260502061327 9 61 1.6 3.2 0.00 0.00 0.00 99 1012.5
20260502060823 9 80 3.2 4.8 0.00 0.00 0.00 99 1012.5
20260502060318 9 62 3.2 3.2 0.00 0.00 0.00 99 1012.6
20260502055816 9 73 3.2 3.2 0.00 0.00 0.00 99 1012.4
20260502055314 9 73 3.2 4.8 0.00 0.00 0.00 99 1012.4
20260502054813 9 76 4.8 4.8 0.00 0.00 0.00 99 1012.6
20260502054311 9 71 4.8 4.8 0.00 0.00 0.00 99 1012.4
20260502053808 9 75 4.8 4.8 0.00 0.00 0.00 99 1012.7
20260502053305 9 75 4.8 4.8 0.00 0.00 0.00 99 1012.6
20260502052803 9 73 4.8 4.8 0.00 0.00 0.00 99 1012.6
20260502052300 9 63 3.2 4.8 0.00 0.00 0.00 99 1012.7
20260502051758 9 70 4.8 4.8 0.00 0.00 0.00 99 1012.6
20260502051257 9 67 4.8 4.8 0.00 0.00 0.00 99 1012.7
20260502050752 9 61 4.8 4.8 0.00 0.00 0.00 99 1012.6